Weather History for Plant City, FL

Change the Weather History Date:

Thursday, November 8, 2012

  Actual Average Record
Temperature  
Mean Temperature 58 °F -  
Max Temperature 68 °F 79 °F 87 °F (1946)
Min Temperature 48 °F 55 °F 39 °F (1934)
Degree Days  
Heating Degree Days 7    
Growing Degree Days 8 (Base 50)    
Moisture  
Dew Point 41 °F    
Average Humidity 60    
Maximum Humidity 87    
Minimum Humidity 26    
Precipitation  
Precipitation 0.00 in - - ()
Sea Level Pressure  
Sea Level Pressure 30.13 in    
Wind  
Wind Speed 4 mph (North)    
Max Wind Speed 12 mph    
Max Gust Speed 16 mph    
Visibility 10 miles    
Events Rain    
Averages and records for this station are not official NWS values.
T = Trace of Precipitation, MM = Missing Value Source: NWS Daily Summary

Daily Weather History Graph

Daily Weather History Graph

Search for Another Location

Airport:

Trip Planner

Search our weather history database for the weather conditions in past years. The results will help you decide how hot, cold, wet, or windy it might be!

Date:

Astronomy

Nov. 08, 2012 Rise Set
Actual Time 6:45 AM EST 5:39 PM EST
Civil Twilight 6:20 AM EST 6:03 PM EST
Nautical Twilight 5:52 AM EST 6:31 PM EST
Astronomical Twilight 5:24 AM EST 6:59 PM EST
Moon 1:08 AM EST (11/8) 1:53 PM EST (11/8)
Length of Visible Light 11h 43m
Length of Day
10h 53m
Waning Crescent, 33% of the Moon is Illuminated
Nov 8
Waning Crescent
Nov 13
New
Nov 20
First Quarter
Nov 28
Full
Dec 6
Last Quarter

Hourly Weather History & Observations

Time (EST) Temp. Dew Point Humidity Pressure Visibility Wind Dir Wind Speed Gust Speed Precip Events Conditions
12:15 AM 55.4 °F 48.2 °F 77% 30.04 in 10.0 mi North 3.5 mph - N/A Rain Light Rain
12:35 AM 55.4 °F 48.2 °F 77% 30.04 in 10.0 mi North 3.5 mph - N/A   Overcast
12:55 AM 55.4 °F 48.2 °F 77% 30.04 in 10.0 mi Calm Calm - N/A   Overcast
1:15 AM 55.4 °F 48.2 °F 77% 30.04 in 10.0 mi Calm Calm - N/A   Overcast
1:35 AM 53.6 °F 48.2 °F 82% 30.04 in 10.0 mi North 6.9 mph - N/A   Scattered Clouds
1:55 AM 53.6 °F 48.2 °F 82% 30.04 in 10.0 mi Calm Calm - N/A   Clear
2:15 AM 53.6 °F 48.2 °F 82% 30.05 in 10.0 mi North 3.5 mph - N/A   Clear
2:35 AM 51.8 °F 46.4 °F 82% 30.04 in 10.0 mi Calm Calm - N/A   Clear
2:55 AM 53.6 °F 46.4 °F 77% 30.04 in 10.0 mi Calm Calm - N/A   Mostly Cloudy
3:15 AM 53.6 °F 42.8 °F 67% 30.05 in 10.0 mi NNW 3.5 mph - N/A   Mostly Cloudy
3:35 AM 51.8 °F 42.8 °F 71% 30.05 in 10.0 mi North 4.6 mph - N/A   Scattered Clouds
3:55 AM 50.0 °F 42.8 °F 76% 30.05 in 10.0 mi NNE 4.6 mph - N/A   Clear
4:15 AM 50.0 °F 42.8 °F 76% 30.05 in 10.0 mi North 3.5 mph - N/A   Clear
4:35 AM 50.0 °F 42.8 °F 76% 30.06 in 10.0 mi North 3.5 mph - N/A   Clear
4:55 AM 48.2 °F 42.8 °F 82% 30.07 in 10.0 mi NNE 4.6 mph - N/A   Clear
5:15 AM 48.2 °F 42.8 °F 82% 30.07 in 10.0 mi NNE 3.5 mph - N/A   Clear
5:35 AM 48.2 °F 42.8 °F 82% 30.08 in 10.0 mi NNE 3.5 mph - N/A   Clear
6:15 AM 48.2 °F 42.8 °F 82% 30.09 in 10.0 mi NNE 3.5 mph - N/A   Clear
6:35 AM 48.2 °F 42.8 °F 82% 30.10 in 10.0 mi North 3.5 mph - N/A   Clear
6:55 AM 48.2 °F 42.8 °F 82% 30.12 in 10.0 mi North 3.5 mph - N/A   Clear
7:15 AM 48.2 °F 44.6 °F 87% 30.13 in 10.0 mi North 3.5 mph - N/A   Clear
7:35 AM 50.0 °F 44.6 °F 82% 30.13 in 10.0 mi North 3.5 mph - N/A   Clear
7:55 AM 51.8 °F 44.6 °F 76% 30.14 in 10.0 mi North 5.8 mph - N/A   Clear
8:15 AM 53.6 °F 42.8 °F 67% 30.15 in 10.0 mi North 6.9 mph - N/A   Clear
8:35 AM 53.6 °F 42.8 °F 67% 30.16 in 10.0 mi North 10.4 mph - N/A   Clear
8:55 AM 55.4 °F 42.8 °F 63% 30.16 in 10.0 mi North 5.8 mph - N/A   Clear
9:15 AM 57.2 °F 41.0 °F 55% 30.16 in 10.0 mi North 11.5 mph 16.1 mph N/A   Clear
9:35 AM 59.0 °F 41.0 °F 51% 30.17 in 10.0 mi NNE 9.2 mph - N/A   Clear
9:55 AM 59.0 °F 41.0 °F 51% 30.17 in 10.0 mi North 6.9 mph - N/A   Clear
10:15 AM 60.8 °F 39.2 °F 45% 30.18 in 10.0 mi North 6.9 mph - N/A   Clear
10:35 AM 62.6 °F 39.2 °F 42% 30.18 in 10.0 mi North 9.2 mph - N/A   Clear
10:55 AM 62.6 °F 37.4 °F 39% 30.18 in 10.0 mi NNW 10.4 mph 16.1 mph N/A   Clear
11:15 AM 62.6 °F 33.8 °F 34% 30.17 in 10.0 mi North 9.2 mph - N/A   Clear
11:35 AM 64.4 °F 35.6 °F 34% 30.17 in 10.0 mi NNW 3.5 mph 16.1 mph N/A   Clear
11:55 AM 66.2 °F 33.8 °F 30% 30.16 in 10.0 mi NNW 11.5 mph - N/A   Clear
12:15 PM 66.2 °F 33.8 °F 30% 30.16 in 10.0 mi NW 8.1 mph 16.1 mph N/A   Clear
12:35 PM 66.2 °F 33.8 °F 30% 30.14 in 10.0 mi North 10.4 mph - N/A   Clear
12:55 PM 66.2 °F 33.8 °F 30% 30.14 in 10.0 mi North 6.9 mph - N/A   Clear
1:15 PM 66.2 °F 32.0 °F 28% 30.13 in 10.0 mi NNW 6.9 mph - N/A   Clear
1:55 PM 68.0 °F 35.6 °F 30% 30.12 in 10.0 mi North 6.9 mph - N/A   Clear
2:15 PM 68.0 °F 33.8 °F 28% 30.12 in 10.0 mi North 8.1 mph - N/A   Clear
2:35 PM 68.0 °F 32.0 °F 26% 30.12 in 10.0 mi NNW 4.6 mph - N/A   Clear
2:55 PM 68.0 °F 33.8 °F 28% 30.12 in 10.0 mi North 3.5 mph - N/A   Clear
3:15 PM 68.0 °F 33.8 °F 28% 30.12 in 10.0 mi North 4.6 mph - N/A   Clear
3:35 PM 68.0 °F 32.0 °F 26% 30.12 in 10.0 mi NNE 4.6 mph - N/A   Clear
3:55 PM 68.0 °F 32.0 °F 26% 30.12 in 10.0 mi North 5.8 mph - N/A   Clear
4:15 PM 68.0 °F 32.0 °F 26% 30.12 in 10.0 mi Calm Calm - N/A   Clear
4:35 PM 68.0 °F 32.0 °F 26% 30.12 in 10.0 mi North 3.5 mph - N/A   Clear
4:55 PM 66.2 °F 33.8 °F 30% 30.12 in 10.0 mi North 4.6 mph - N/A   Clear
5:15 PM 64.4 °F 35.6 °F 34% 30.13 in 10.0 mi North 3.5 mph - N/A   Clear
5:35 PM 64.4 °F 35.6 °F 34% 30.13 in 10.0 mi Calm Calm - N/A   Clear
5:55 PM 60.8 °F 39.2 °F 45% 30.14 in 10.0 mi North 3.5 mph - N/A   Clear
6:15 PM 60.8 °F 41.0 °F 48% 30.15 in 10.0 mi NW 6.9 mph - N/A   Clear
6:35 PM 59.0 °F 42.8 °F 55% 30.15 in 10.0 mi NNW 3.5 mph - N/A   Clear
6:55 PM 59.0 °F 42.8 °F 55% 30.16 in 10.0 mi Calm Calm - N/A   Clear
7:15 PM 57.2 °F 44.6 °F 63% 30.17 in 10.0 mi Calm Calm - N/A   Clear
7:35 PM 57.2 °F 44.6 °F 63% 30.17 in 10.0 mi North 3.5 mph - N/A   Clear
7:55 PM 55.4 °F 44.6 °F 67% 30.17 in 10.0 mi North 3.5 mph - N/A   Clear
8:15 PM 55.4 °F 44.6 °F 67% 30.18 in 10.0 mi North 3.5 mph - N/A   Clear
8:35 PM 55.4 °F 44.6 °F 67% 30.19 in 10.0 mi North 3.5 mph - N/A   Clear
8:55 PM 53.6 °F 44.6 °F 72% 30.20 in 10.0 mi North 4.6 mph - N/A   Clear
9:15 PM 53.6 °F 46.4 °F 77% 30.20 in 10.0 mi NNE 3.5 mph - N/A   Clear
9:35 PM 53.6 °F 46.4 °F 77% 30.20 in 10.0 mi NNE 4.6 mph - N/A   Clear
9:55 PM 53.6 °F 46.4 °F 77% 30.20 in 10.0 mi North 3.5 mph - N/A   Clear
10:15 PM 53.6 °F 46.4 °F 77% 30.20 in 10.0 mi North 3.5 mph - N/A   Clear
10:35 PM 53.6 °F 46.4 °F 77% 30.21 in 10.0 mi Calm Calm - N/A   Clear
10:55 PM 51.8 °F 46.4 °F 82% 30.21 in 10.0 mi Calm Calm - N/A   Clear
11:15 PM 51.8 °F 46.4 °F 82% 30.21 in 10.0 mi NNE 3.5 mph - N/A   Clear
11:35 PM 51.8 °F 46.4 °F 82% 30.21 in 10.0 mi Calm Calm - N/A   Clear
11:55 PM 50.0 °F 46.4 °F 87% 30.21 in 10.0 mi Calm Calm - N/A   Clear